Location: Newark
(40.3500°N, 15.2333°E)
Time: 15:19:11
(UTC+00:00)

Altair - Pass Details

Date: 18 January 2020
Orbit: 1502 x 1682 km, 47.2° (Epoch: 25 February)

Event Time Altitude Azimuth Distance (km) Brightness Sun altitude
Rises 08:38:21 0° 220° (SW) 4,883 10.3 19.6°
Reaches altitude 10° 08:41:31 10° 217° (SW) 3,912 9.9 20.0°
Maximum altitude 08:51:21 60° 140° (SE) 1,879 9.0 21.1°
Drops below altitude 10° 09:01:15 10° 64° (ENE) 3,934 9.8 22.1°
Sets 09:04:26 0° 61° (ENE) 4,912 10.2 22.5°
